Location: �perlecques
(50.8057°N, 2.1521°E)
Time: 22:08:11
(UTC+00:00)

Oscar 11 - Pass Details

Date: 03 October 2021
Orbit: 612 x 625 km, 97.6° (Epoch: 28 October)

Event Time Altitude Azimuth Distance (km) Brightness Sun altitude
Rises 05:05:37 0° 18° (NNE) 2,894 10.8 -8.6°
Reaches altitude 10° 05:07:53 10° 25° (NNE) 1,984 10.1 -8.3°
Maximum altitude 05:12:02 45° 98° (E) 845 8.4 -7.6°
Drops below altitude 10° 05:16:09 10° 172° (S) 1,972 9.7 -7.0°
Sets 05:18:24 0° 178° (S) 2,874 10.5 -6.6°
